Time[GMT],current_speed[cm/s](2m),current_direction[angular_degrees](2m),temperature[C](2m),current_u[cm/s](2m),current_v[cm/s](2m),signal_strength[db](2m),tilt[degrees](2m)
2020-10-06 03:00,15.92,345.6,15.78,-3.96,15.41,-25.75,5.19
2020-10-06 04:00,13.66,13.4,15.78,3.17,13.29,-25.19,3.96
2020-10-06 05:00,14.21,15.6,15.77,3.82,13.69,-23.95,4.45
2020-10-06 06:00,16.68,42.6,15.77,11.30,12.28,-24.76,5.13
2020-10-06 07:00,23.84,58.6,15.79,20.36,12.41,-25.16,6.90
2020-10-06 08:00,24.87,72.4,15.78,23.71,7.53,-25.53,6.14
2020-10-06 09:00,25.35,75.6,15.75,24.56,6.28,-25.24,6.41
2020-10-06 10:00,25.26,80.5,15.72,24.92,4.15,-25.94,6.15
2020-10-06 11:00,23.99,83.7,15.72,23.85,2.63,-25.71,5.21
2020-10-06 12:00,13.01,59.4,15.73,11.20,6.63,-26.08,4.77
2020-10-06 13:00,3.73,349.2,15.73,-0.70,3.67,-23.89,5.60
2020-10-06 14:00,10.40,317.2,15.75,-7.06,7.63,-23.46,5.80
2020-10-06 15:00,15.48,327.3,15.83,-8.37,13.03,-25.29,6.55
2020-10-06 16:00,18.04,10.2,15.92,3.18,17.76,-26.05,6.78
2020-10-06 17:00,20.95,24.3,15.95,8.62,19.09,-21.03,6.59
2020-10-06 18:00,22.61,40.5,16.01,14.70,17.19,-23.92,9.49
2020-10-06 19:00,29.18,35.8,15.98,17.05,23.68,-19.99,10.43
2020-10-06 20:00,28.00,38.0,16.03,17.25,22.06,-21.36,10.54
2020-10-06 21:00,29.07,32.9,16.01,15.79,24.41,-15.08,11.58
2020-10-06 22:00,32.71,42.7,15.98,22.19,24.03,-18.44,10.82
2020-10-06 23:00,31.00,46.9,15.94,22.65,21.16,-14.50,10.80
2020-10-07 00:00,28.63,56.4,15.91,23.85,15.85,-24.24,10.07
2020-10-07 01:00,20.48,43.2,15.88,14.03,14.92,-24.39,10.34
2020-10-07 02:00,17.32,10.3,15.87,3.10,17.04,-24.29,8.74
2020-10-07 03:00,19.41,355.0,15.87,-1.69,19.33,-18.39,9.14
2020-10-07 04:00,18.60,11.9,15.86,3.82,18.20,-20.56,8.59
2020-10-07 05:00,9.97,17.0,15.85,2.91,9.54,-23.62,7.13
2020-10-07 06:00,13.30,64.9,15.83,12.04,5.64,-27.06,7.67
2020-10-07 07:00,19.21,42.3,15.82,12.92,14.21,-23.65,8.30
2020-10-07 08:00,22.79,58.2,15.80,19.36,12.02,-21.40,9.01
2020-10-07 09:00,18.58,51.2,15.78,14.48,11.63,-22.39,8.95
2020-10-07 10:00,21.79,49.6,15.75,16.60,14.11,-19.63,8.93
2020-10-07 11:00,24.47,45.2,15.72,17.37,17.23,-20.14,8.66
2020-10-07 12:00,19.20,48.8,15.71,14.44,12.65,-20.43,8.43
2020-10-07 13:00,10.06,9.4,15.72,1.64,9.92,-20.73,9.83
2020-10-07 14:00,20.17,1.9,15.75,0.67,20.16,-26.62,8.26
2020-10-07 15:00,14.88,356.5,15.84,-0.91,14.85,-25.22,6.82
2020-10-07 16:00,17.51,4.8,15.90,1.46,17.45,-26.64,7.50
2020-10-07 17:00,14.69,340.0,15.95,-5.04,13.80,-27.18,7.01
2020-10-07 18:00,16.04,27.8,15.99,7.48,14.19,-23.09,7.64
2020-10-07 19:00,22.41,32.9,16.09,12.18,18.82,-19.60,8.15
2020-10-07 20:00,26.10,52.6,16.04,20.74,15.85,-17.04,12.80
2020-10-07 21:00,29.78,63.1,16.08,26.55,13.49,-11.68,11.33
2020-10-07 22:00,37.54,63.1,16.10,33.48,16.99,-4.16,16.08
2020-10-07 23:00,33.46,81.2,16.04,33.07,5.14,-9.87,13.85
2020-10-08 00:00,31.61,80.3,15.94,31.15,5.34,-10.29,13.61
2020-10-08 01:00,23.25,87.0,15.83,23.22,1.20,-15.21,13.23
2020-10-08 02:00,14.42,74.8,15.77,13.92,3.78,-10.62,10.67
2020-10-08 03:00,2.20,159.1,15.75,0.78,-2.05,-18.17,11.90
2020-10-08 04:00,9.73,99.5,15.71,9.59,-1.61,-13.96,10.52
2020-10-08 05:00,10.20,151.3,15.66,4.90,-8.94,-4.45,11.71
2020-10-08 06:00,8.55,174.5,15.63,0.82,-8.51,-15.36,9.69
2020-10-08 07:00,11.72,125.2,15.52,9.58,-6.76,-18.64,9.29
2020-10-08 08:00,13.64,113.9,15.42,12.47,-5.53,-17.48,9.29
2020-10-08 09:00,5.63,113.3,15.36,5.18,-2.23,-27.48,7.67
2020-10-08 10:00,13.52,71.2,15.34,12.80,4.36,-14.71,8.44
2020-10-08 11:00,12.44,26.9,15.35,5.63,11.09,-17.38,8.07
2020-10-08 12:00,18.48,47.2,15.37,13.57,12.55,-20.31,9.81
2020-10-08 13:00,13.96,29.6,15.30,6.90,12.13,-18.70,11.34
2020-10-08 14:00,17.56,21.5,15.32,6.43,16.34,-23.56,10.41
2020-10-08 15:00,12.01,1.5,15.35,0.31,12.00,-22.68,8.36
2020-10-08 16:00,13.08,356.0,15.40,-0.92,13.05,-19.97,8.80
2020-10-08 17:00,15.22,28.4,15.41,7.24,13.39,-24.02,9.80
2020-10-08 18:00,9.65,42.7,15.46,6.55,7.09,-19.07,8.42
2020-10-08 19:00,13.74,88.7,15.47,13.74,0.31,-10.99,8.57
2020-10-08 20:00,18.61,82.6,15.45,18.46,2.40,-12.13,11.35
2020-10-08 21:00,17.33,82.6,15.38,17.19,2.23,-12.89,8.22
2020-10-08 22:00,12.76,78.1,15.33,12.49,2.63,-21.50,8.19
2020-10-08 23:00,10.93,86.5,15.30,10.91,0.66,-15.79,8.96
2020-10-09 00:00,13.39,106.1,15.27,12.87,-3.71,-18.95,9.15
2020-10-09 01:00,4.65,130.9,15.24,3.51,-3.04,-13.13,9.60
2020-10-09 02:00,4.94,282.9,15.22,-4.81,1.10,-19.31,7.96
2020-10-09 03:00,10.05,304.0,15.19,-8.33,5.62,-21.51,5.47
2020-10-09 04:00,21.31,304.5,15.21,-17.55,12.08,-23.68,6.06
2020-10-09 05:00,20.28,322.2,15.23,-12.43,16.03,-20.08,6.80
2020-10-09 06:00,17.64,339.8,15.17,-6.10,16.55,-17.76,6.89
2020-10-09 07:00,16.55,342.0,15.13,-5.10,15.75,-26.14,7.49
2020-10-09 08:00,24.02,39.6,15.05,15.32,18.49,-15.01,11.03
2020-10-09 09:00,24.40,59.0,14.99,20.92,12.56,-14.10,11.64
2020-10-09 10:00,23.47,63.8,14.92,21.06,10.35,-17.58,10.29
2020-10-09 11:00,18.17,104.3,14.86,17.60,-4.49,-12.97,10.67
2020-10-09 12:00,7.89,133.1,14.84,5.75,-5.39,-18.73,8.70
2020-10-09 13:00,3.41,152.2,14.81,1.59,-3.01,-20.21,7.25
2020-10-09 14:00,6.24,305.9,14.81,-5.05,3.66,-25.27,5.45
2020-10-09 15:00,13.60,282.8,14.84,-13.26,3.01,-24.76,5.31
2020-10-09 16:00,15.37,286.0,14.90,-14.78,4.22,-24.72,3.92
2020-10-09 17:00,18.51,302.7,14.96,-15.58,9.99,-26.97,3.72
2020-10-09 18:00,20.62,319.7,14.98,-13.33,15.73,-27.21,4.96
2020-10-09 19:00,22.94,345.5,15.00,-5.74,22.21,-23.91,5.59
2020-10-09 20:00,24.28,11.7,14.97,4.93,23.77,-23.22,5.88
2020-10-09 21:00,27.06,26.1,14.94,11.89,24.30,-25.18,7.54
2020-10-09 22:00,28.53,31.8,14.91,15.05,24.23,-20.54,7.24
2020-10-09 23:00,24.14,44.7,14.82,16.97,17.16,-28.78,6.07
2020-10-10 00:00,22.67,58.8,14.70,19.39,11.76,-26.73,5.14
2020-10-10 01:00,17.18,64.6,14.48,15.52,7.38,-23.52,7.84
2020-10-10 02:00,15.09,55.7,14.28,12.47,8.50,-20.75,8.60
2020-10-10 03:00,11.82,12.0,14.27,2.47,11.56,-20.94,8.47
2020-10-10 04:00,10.17,343.1,14.27,-2.95,9.73,-18.85,8.44
2020-10-10 05:00,20.82,334.5,14.35,-8.97,18.78,-27.19,7.98
2020-10-10 06:00,16.69,329.2,14.37,-8.53,14.34,-27.64,7.53
2020-10-10 07:00,16.92,330.9,14.39,-8.24,14.78,-23.91,8.81
2020-10-10 08:00,17.96,355.0,14.37,-1.58,17.89,-17.34,8.84
2020-10-10 09:00,20.42,2.7,14.18,0.96,20.40,-20.19,9.36
2020-10-10 10:00,22.15,24.7,14.19,9.26,20.12,-14.85,10.96
2020-10-10 11:00,25.25,23.0,14.14,9.87,23.24,-12.76,11.60
2020-10-10 12:00,22.66,38.3,14.03,14.03,17.79,-10.00,11.40
2020-10-10 13:00,23.02,54.7,14.00,18.79,13.31,-17.67,11.24
2020-10-10 14:00,24.81,68.7,14.05,23.11,9.02,-11.83,11.10
2020-10-10 15:00,15.44,48.6,14.11,11.59,10.20,-3.97,10.31
2020-10-10 16:00,13.40,17.2,14.15,3.97,12.79,-19.67,10.50
2020-10-10 17:00,12.31,45.7,14.20,8.81,8.60,-21.60,8.58
2020-10-10 18:00,5.03,40.6,14.27,3.27,3.82,-21.85,7.14
2020-10-10 19:00,0.68,177.1,14.32,0.03,-0.68,-25.21,5.65
2020-10-10 20:00,5.09,330.3,14.34,-2.52,4.42,-19.78,7.36
2020-10-10 21:00,9.74,337.9,14.30,-3.67,9.03,-21.68,8.65
2020-10-10 22:00,15.11,354.6,14.29,-1.41,15.04,-18.48,8.65
2020-10-10 23:00,27.09,349.5,14.53,-4.93,26.63,-23.86,9.25
2020-10-11 00:00,18.88,359.9,14.73,-0.04,18.88,-21.39,9.41
2020-10-11 01:00,21.48,30.0,14.74,10.73,18.61,-22.68,10.29
2020-10-11 02:00,21.23,28.0,14.69,9.97,18.75,-16.83,10.08
2020-10-11 03:00,20.72,29.8,14.46,10.28,17.98,-19.19,10.48
2020-10-11 04:00,21.10,35.3,14.23,12.20,17.21,-27.23,7.60
2020-10-11 05:00,14.29,46.9,14.22,10.43,9.76,-26.31,6.02
2020-10-11 06:00,9.21,63.5,14.26,8.25,4.11,-26.41,5.90
2020-10-11 07:00,3.01,142.9,14.26,1.81,-2.40,-27.33,3.84
2020-10-11 08:00,9.15,201.3,14.21,-3.32,-8.53,-20.93,8.02
2020-10-11 09:00,16.81,209.5,14.22,-8.28,-14.62,-14.03,9.22
2020-10-11 10:00,13.45,201.5,14.29,-4.92,-12.52,-23.17,9.24
2020-10-11 11:00,11.29,213.1,14.30,-6.16,-9.46,-22.27,8.31
2020-10-11 12:00,10.43,237.8,14.27,-8.82,-5.56,-23.75,10.29
2020-10-11 13:00,8.68,215.9,14.20,-5.08,-7.03,-19.01,9.06
2020-10-11 14:00,11.43,253.4,14.15,-10.96,-3.28,-18.42,8.85
2020-10-11 15:00,10.58,328.9,13.98,-5.47,9.06,-24.25,6.78
2020-10-11 16:00,14.88,329.2,14.01,-7.61,12.79,-23.28,7.00
2020-10-11 17:00,22.34,323.4,14.08,-13.32,17.93,-27.34,7.31
2020-10-11 18:00,26.94,322.7,14.20,-16.32,21.44,-24.14,8.76
2020-10-11 19:00,31.97,331.8,14.77,-15.13,28.16,-22.34,9.64
2020-10-11 20:00,31.53,337.1,14.57,-12.28,29.04,-17.73,8.30
2020-10-11 21:00,31.43,339.4,14.57,-11.08,29.42,-20.84,8.28
2020-10-11 22:00,35.60,341.1,14.50,-11.51,33.68,-16.93,8.03
2020-10-11 23:00,28.50,356.1,14.09,-1.94,28.44,-17.12,7.51
2020-10-12 00:00,21.64,8.8,13.61,3.32,21.39,-21.18,6.17
2020-10-12 01:00,12.64,33.8,13.37,7.04,10.50,-24.97,6.75
2020-10-12 02:00,10.89,34.6,13.36,6.19,8.96,-22.30,5.88
2020-10-12 03:00,11.63,56.7,13.39,9.72,6.39,-25.27,5.54
2020-10-12 04:00,4.34,347.2,13.49,-0.96,4.23,-24.83,6.12
2020-10-12 05:00,9.29,349.5,13.47,-1.69,9.14,-26.61,6.56
2020-10-12 06:00,29.28,358.3,13.82,-0.88,29.26,-24.22,8.92
2020-10-12 07:00,18.22,340.2,13.89,-6.17,17.14,-17.34,7.40
2020-10-12 08:00,18.37,336.0,13.92,-7.48,16.78,-25.60,8.45
2020-10-12 09:00,21.18,336.9,14.05,-8.30,19.49,-23.48,9.95
2020-10-12 10:00,21.00,331.7,14.29,-9.95,18.49,-16.90,10.42
2020-10-12 11:00,24.07,351.7,14.42,-3.47,23.82,-21.42,7.80
2020-10-12 12:00,24.70,11.5,14.51,4.92,24.21,-16.01,9.26
2020-10-12 13:00,25.60,357.4,14.60,-1.14,25.58,-19.34,9.15
2020-10-12 14:00,23.43,5.3,14.63,2.16,23.33,-24.47,7.17
2020-10-12 15:00,24.17,16.1,14.63,6.70,23.22,-16.90,9.21
2020-10-12 16:00,26.69,27.8,14.58,12.44,23.62,-12.41,8.26
2020-10-12 17:00,21.36,12.6,14.57,4.65,20.85,-20.12,9.42
2020-10-12 18:00,24.63,351.3,14.58,-3.71,24.35,-24.18,9.18
2020-10-12 19:00,24.84,326.2,14.57,-13.83,20.63,-19.55,8.55
2020-10-12 20:00,24.45,328.2,14.57,-12.90,20.77,-12.79,9.02
2020-10-12 21:00,20.01,338.7,14.59,-7.28,18.64,-14.74,9.65
2020-10-12 22:00,15.66,341.1,14.63,-5.08,14.82,-24.49,9.92
2020-10-12 23:00,19.44,336.6,14.63,-7.73,17.84,-20.39,8.21
2020-10-13 00:00,22.22,348.1,14.65,-4.57,21.75,-19.84,8.47
2020-10-13 01:00,19.67,354.7,14.65,-1.82,19.59,-21.91,10.72
2020-10-13 02:00,26.08,355.7,14.63,-1.96,26.00,-23.75,9.73
2020-10-13 03:00,24.50,2.5,14.60,1.07,24.48,-13.44,9.63
2020-10-13 04:00,29.05,4.2,14.58,2.11,28.98,-20.47,10.36
2020-10-13 05:00,29.69,2.1,14.53,1.10,29.67,-22.65,10.87
2020-10-13 06:00,27.98,351.2,14.47,-4.29,27.65,-19.03,10.01
2020-10-13 07:00,26.06,337.6,14.40,-9.95,24.09,-17.18,11.39
2020-10-13 08:00,27.30,321.9,14.32,-16.86,21.47,-16.27,10.82
2020-10-13 09:00,32.44,325.1,14.29,-18.56,26.61,-14.52,10.93
2020-10-13 10:00,28.22,327.7,14.27,-15.08,23.85,-19.28,10.35
2020-10-13 11:00,19.72,328.8,14.27,-10.23,16.87,-13.68,10.48
2020-10-13 12:00,28.52,318.6,14.30,-18.85,21.40,-16.88,14.12
2020-10-13 13:00,27.46,341.9,14.30,-8.51,26.11,-16.50,12.02
2020-10-13 14:00,21.31,339.0,14.31,-7.64,19.90,-9.36,10.87
2020-10-13 15:00,23.47,340.9,14.33,-7.70,22.17,-20.34,10.81
2020-10-13 16:00,28.71,358.5,14.35,-0.74,28.70,-13.33,9.97
2020-10-13 17:00,32.18,4.7,14.33,2.62,32.07,-8.97,12.48
2020-10-13 18:00,27.34,349.2,14.28,-5.13,26.85,-13.59,10.73
2020-10-13 19:00,32.30,333.6,14.26,-14.37,28.93,-11.10,12.20
2020-10-13 20:00,23.09,337.5,14.27,-8.85,21.32,-22.96,13.81
2020-10-13 21:00,29.00,346.1,14.31,-6.97,28.16,-23.86,8.72
2020-10-13 22:00,21.81,342.7,14.38,-6.49,20.82,-27.66,6.58
2020-10-13 23:00,10.11,338.4,14.40,-3.72,9.40,-23.67,6.75
2020-10-14 00:00,8.59,324.4,14.44,-5.00,6.99,-17.91,8.66
2020-10-14 01:00,9.54,291.3,14.45,-8.89,3.46,-20.52,9.04
2020-10-14 02:00,8.86,235.6,14.44,-7.31,-5.00,-16.59,11.19
2020-10-14 03:00,6.17,149.1,14.40,3.17,-5.29,-15.05,11.29
2020-10-14 04:00,12.61,150.5,14.36,6.20,-10.98,-12.19,9.57
2020-10-14 05:00,5.21,175.2,14.32,0.43,-5.19,-11.56,8.98
2020-10-14 06:00,3.54,277.9,14.31,-3.51,0.48,-19.84,8.82
2020-10-14 07:00,5.50,250.2,14.31,-5.18,-1.86,-17.39,7.41
2020-10-14 08:00,12.07,270.2,14.35,-12.07,0.04,-24.60,6.73
2020-10-14 09:00,14.07,296.5,14.41,-12.59,6.29,-23.25,7.68
2020-10-14 10:00,14.31,292.0,14.43,-13.26,5.37,-24.61,7.79
2020-10-14 11:00,10.88,0.0,14.46,0.00,10.88,-13.90,8.24
2020-10-14 12:00,3.61,348.3,14.46,-0.73,3.54,-12.83,7.98
2020-10-14 13:00,5.93,37.6,14.47,3.62,4.69,-19.28,7.58
2020-10-14 14:00,15.66,62.0,14.49,13.82,7.36,-18.27,8.65
2020-10-14 15:00,12.67,63.7,14.53,11.36,5.61,-20.15,7.44
2020-10-14 16:00,22.60,84.0,14.49,22.47,2.37,-23.00,6.29
2020-10-14 17:00,16.40,84.8,14.50,16.33,1.49,-23.27,4.83
2020-10-14 18:00,23.77,75.4,14.56,22.99,6.01,-29.99,4.57
2020-10-14 19:00,12.12,80.2,14.55,11.95,2.06,-29.14,3.86
2020-10-14 20:00,2.04,38.6,14.59,1.27,1.59,-27.22,2.30
2020-10-14 21:00,7.36,289.4,14.63,-6.94,2.45,-28.11,2.20
2020-10-14 22:00,11.38,290.0,14.60,-10.69,3.90,-28.89,2.21
2020-10-14 23:00,14.69,309.6,14.61,-11.31,9.37,-28.68,2.41
2020-10-15 00:00,13.93,332.6,14.64,-6.41,12.37,-26.44,2.01
2020-10-15 01:00,13.66,345.0,14.67,-3.54,13.20,-26.87,2.93
2020-10-15 02:00,16.23,32.9,14.60,8.83,13.62,-21.27,4.59
2020-10-15 03:00,21.96,46.4,14.47,15.89,15.15,-25.94,6.25
2020-10-15 04:00,29.75,54.0,14.48,24.08,17.48,-26.80,6.49
2020-10-15 05:00,30.40,56.1,14.45,25.25,16.94,-28.90,5.77
2020-10-15 06:00,27.53,65.8,14.33,25.12,11.27,-29.68,4.53
2020-10-15 07:00,23.43,75.4,14.25,22.67,5.89,-29.31,3.68
2020-10-15 08:00,14.02,69.8,14.23,13.16,4.84,-29.65,2.83
2020-10-15 09:00,3.23,315.5,14.22,-2.26,2.30,-28.32,1.64
2020-10-15 10:00,8.96,277.6,14.23,-8.88,1.18,-29.87,1.64
2020-10-15 11:00,12.86,297.5,14.24,-11.40,5.94,-30.40,1.66
2020-10-15 12:00,14.43,288.0,14.26,-13.72,4.46,-30.28,2.99
2020-10-15 13:00,15.93,316.6,14.31,-10.94,11.58,-30.17,3.13
2020-10-15 14:00,11.64,335.7,14.35,-4.78,10.61,-18.98,5.69
2020-10-15 15:00,18.74,13.0,14.40,4.21,18.27,-19.27,4.96
2020-10-15 16:00,21.74,33.7,14.40,12.08,18.07,-20.08,6.72
2020-10-15 17:00,33.27,35.4,14.45,19.25,27.13,-10.78,10.00
2020-10-15 18:00,34.35,39.6,14.52,21.88,26.48,-15.60,10.37
2020-10-15 19:00,37.80,36.9,14.47,22.71,30.22,-11.71,11.95
2020-10-15 20:00,26.93,31.3,14.41,13.98,23.02,-14.23,10.56
2020-10-15 21:00,22.71,12.8,14.42,5.02,22.15,-15.42,7.84
2020-10-15 22:00,15.08,358.3,14.40,-0.44,15.07,-18.77,8.97
2020-10-15 23:00,19.69,345.2,14.41,-5.04,19.03,-13.93,8.50
2020-10-16 00:00,14.49,333.8,14.45,-6.41,13.00,-24.14,10.38
2020-10-16 01:00,13.10,346.5,14.46,-3.06,12.74,-5.70,10.48
2020-10-16 02:00,15.53,341.8,14.46,-4.85,14.75,-26.38,9.95
2020-10-16 03:00,18.78,11.5,14.45,3.74,18.40,-22.78,7.58
2020-10-16 04:00,27.53,10.1,14.46,4.83,27.11,-19.17,9.92
2020-10-16 05:00,28.42,21.4,14.47,10.38,26.46,-19.85,8.74
2020-10-16 06:00,30.82,32.0,14.48,16.35,26.13,-15.11,10.85
2020-10-16 07:00,27.52,31.9,14.49,14.55,23.35,-16.06,10.67
2020-10-16 08:00,26.98,18.3,14.49,8.48,25.61,-18.13,8.23
2020-10-16 09:00,26.48,358.6,14.51,-0.65,26.47,-16.93,8.93
2020-10-16 10:00,20.77,341.4,14.58,-6.63,19.68,-26.32,8.83
2020-10-16 11:00,23.79,335.7,14.60,-9.79,21.68,-26.57,8.66
2020-10-16 12:00,21.05,324.7,14.54,-12.16,17.18,-17.77,8.46
2020-10-16 13:00,18.77,339.6,14.50,-6.53,17.60,-20.43,9.14
2020-10-16 14:00,15.08,346.0,14.51,-3.65,14.63,-23.49,8.17
2020-10-16 15:00,19.75,11.2,14.55,3.85,19.37,-23.93,6.56
2020-10-16 16:00,25.01,17.1,14.63,7.34,23.91,-26.67,6.80
2020-10-16 17:00,26.64,24.5,14.63,11.05,24.23,-27.36,7.50
2020-10-16 18:00,35.53,36.9,14.72,21.34,28.41,-21.86,9.23
2020-10-16 19:00,29.97,48.3,14.67,22.37,19.95,-24.55,6.52
2020-10-16 20:00,24.09,43.1,14.59,16.46,17.59,-25.27,5.08
2020-10-16 21:00,13.24,27.3,14.58,6.07,11.77,-26.72,7.21
2020-10-16 22:00,10.44,330.8,14.64,-5.10,9.11,-27.76,5.24
2020-10-16 23:00,12.65,304.2,14.67,-10.47,7.11,-15.92,6.08
2020-10-17 00:00,15.09,285.3,14.68,-14.56,3.98,-24.75,5.58
2020-10-17 01:00,11.91,285.7,14.69,-11.47,3.23,-27.69,4.52
2020-10-17 02:00,10.55,264.8,14.67,-10.51,-0.95,-26.59,4.08
2020-10-17 03:00,9.35,280.6,14.67,-9.19,1.72,-26.16,4.04
2020-10-17 04:00,6.80,312.5,14.67,-5.02,4.59,-22.53,6.41
2020-10-17 05:00,10.61,48.5,14.67,7.95,7.03,-24.35,7.62
2020-10-17 06:00,14.24,16.0,14.65,3.93,13.68,-10.07,8.74
2020-10-17 07:00,9.30,36.9,14.61,5.58,7.44,-10.54,10.60
2020-10-17 08:00,12.01,59.4,14.57,10.34,6.11,-5.95,11.06
2020-10-17 09:00,11.92,97.4,14.53,11.82,-1.53,-1.97,11.99
2020-10-17 10:00,3.32,129.2,14.50,2.57,-2.10,-18.07,11.20
2020-10-17 11:00,14.13,230.2,14.52,-10.85,-9.05,-13.86,10.46
2020-10-17 12:00,12.53,232.7,14.53,-9.97,-7.60,-23.52,9.52
2020-10-17 13:00,15.51,235.2,14.51,-12.73,-8.86,-12.43,9.01
2020-10-17 14:00,10.77,229.1,14.50,-8.14,-7.06,-13.02,10.06
2020-10-17 15:00,3.04,219.2,14.47,-1.92,-2.36,-17.41,13.59
2020-10-17 16:00,6.51,153.0,14.45,2.96,-5.80,-7.35,12.37
2020-10-17 17:00,14.35,167.7,14.44,3.06,-14.02,-7.58,12.61
2020-10-17 18:00,12.20,126.2,14.45,9.85,-7.20,-6.39,9.53
2020-10-17 19:00,9.98,80.4,14.45,9.84,1.67,-13.57,9.46
2020-10-17 20:00,18.92,77.6,14.44,18.48,4.05,-17.23,8.27
2020-10-17 21:00,14.72,61.4,14.42,12.92,7.06,-15.62,8.42
2020-10-17 22:00,6.48,16.6,14.41,1.85,6.21,-23.25,5.88
2020-10-17 23:00,13.26,302.1,14.40,-11.23,7.04,-27.59,4.67
2020-10-18 00:00,19.05,294.9,14.38,-17.28,8.04,-27.17,3.07
2020-10-18 01:00,22.28,298.0,14.36,-19.68,10.45,-27.86,3.12
2020-10-18 02:00,20.25,314.6,14.34,-14.43,14.21,-27.28,2.94
2020-10-18 03:00,13.83,320.6,14.28,-8.79,10.68,-26.54,2.24
2020-10-18 04:00,13.86,2.5,14.29,0.60,13.84,-27.09,2.27
2020-10-18 05:00,15.42,34.4,14.27,8.72,12.72,-27.38,3.20
2020-10-18 06:00,14.26,61.1,14.25,12.49,6.89,-26.86,3.46
2020-10-18 07:00,18.44,65.6,14.24,16.80,7.62,-28.17,2.51
2020-10-18 08:00,20.03,58.0,14.26,16.99,10.61,-28.35,2.40
2020-10-18 09:00,15.28,61.3,14.26,13.40,7.34,-29.25,1.89
2020-10-18 10:00,7.96,37.5,14.24,4.84,6.32,-28.91,1.53
2020-10-18 11:00,7.69,270.5,14.24,-7.69,0.07,-28.92,1.66
2020-10-18 12:00,17.31,277.7,14.24,-17.15,2.33,-29.27,1.49
2020-10-18 13:00,22.21,278.3,14.23,-21.98,3.20,-28.34,2.19
2020-10-18 14:00,20.25,289.1,14.23,-19.14,6.61,-27.87,2.01
2020-10-18 15:00,19.83,296.1,14.24,-17.81,8.71,-24.26,4.34
2020-10-18 16:00,13.33,308.9,14.23,-10.38,8.37,-25.24,4.21
2020-10-18 17:00,15.40,317.7,14.26,-10.36,11.39,-22.55,5.55
2020-10-18 18:00,20.46,343.9,14.27,-5.69,19.66,-24.17,5.10
2020-10-18 19:00,20.98,8.0,14.30,2.91,20.78,-25.29,6.30
2020-10-18 20:00,22.05,20.5,14.31,7.72,20.66,-24.02,6.25
2020-10-18 21:00,20.74,21.6,14.27,7.62,19.28,-23.46,5.03
2020-10-18 22:00,18.80,30.1,14.26,9.44,16.26,-24.38,6.02
2020-10-18 23:00,16.75,1.1,14.25,0.32,16.74,-23.78,4.89
2020-10-19 00:00,18.17,314.9,14.25,-12.87,12.83,-25.88,6.85
2020-10-19 01:00,22.11,299.2,14.23,-19.30,10.79,-26.01,6.26
2020-10-19 02:00,23.63,295.1,14.20,-21.40,10.02,-22.64,7.04
2020-10-19 03:00,22.29,292.9,14.19,-20.54,8.66,-24.96,6.19
2020-10-19 04:00,15.89,297.4,14.16,-14.11,7.30,-25.52,5.13
2020-10-19 05:00,14.79,323.8,14.17,-8.74,11.93,-26.96,4.17
2020-10-19 06:00,13.49,351.2,14.18,-2.07,13.33,-27.58,3.83
2020-10-19 07:00,11.22,343.5,14.16,-3.19,10.76,-27.12,3.86
2020-10-19 08:00,9.89,353.2,14.06,-1.18,9.82,-28.30,2.90
2020-10-19 09:00,11.65,345.8,14.00,-2.85,11.30,-27.83,3.03
2020-10-19 10:00,19.30,322.4,13.82,-11.78,15.29,-27.67,3.36
2020-10-19 11:00,13.93,346.2,13.30,-3.33,13.53,-28.47,3.48
2020-10-19 12:00,18.49,308.0,13.30,-14.57,11.38,-27.75,2.99
2020-10-19 13:00,20.01,305.0,13.32,-16.39,11.47,-26.98,3.11
2020-10-19 14:00,19.55,307.4,13.34,-15.53,11.88,-26.52,3.00
2020-10-19 15:00,18.83,317.3,13.36,-12.76,13.84,-28.22,4.04
2020-10-19 16:00,18.79,317.0,13.44,-12.82,13.74,-28.65,3.70
2020-10-19 17:00,16.89,317.1,13.76,-11.49,12.38,-29.38,3.08
2020-10-19 18:00,16.67,352.0,13.75,-2.31,16.51,-29.39,3.04
2020-10-19 19:00,16.79,4.5,14.07,1.31,16.74,-29.23,3.52
2020-10-19 20:00,17.34,13.9,13.90,4.15,16.83,-26.28,4.43
2020-10-19 21:00,15.39,20.9,13.64,5.49,14.37,-26.06,2.74
2020-10-19 22:00,18.00,19.8,13.50,6.09,16.94,-25.08,3.00
2020-10-19 23:00,21.87,22.7,13.70,8.43,20.18,-25.70,3.14
2020-10-20 00:00,17.85,357.8,13.69,-0.69,17.84,-24.48,3.18
2020-10-20 01:00,16.76,327.7,13.64,-8.96,14.16,-23.84,4.10
2020-10-20 02:00,16.91,325.4,13.59,-9.60,13.91,-22.70,3.64
2020-10-20 03:00,14.43,327.4,13.50,-7.76,12.16,-22.49,3.21
2020-10-20 04:00,18.50,305.5,13.26,-15.06,10.74,-23.63,3.46
2020-10-20 05:00,18.70,300.6,13.32,-16.11,9.51,-25.65,3.05
2020-10-20 06:00,13.71,335.4,13.36,-5.70,12.47,-24.70,4.37
2020-10-20 07:00,15.17,25.3,13.42,6.49,13.72,-26.40,4.13
2020-10-20 08:00,11.13,26.3,13.42,4.92,9.98,-26.52,3.56
2020-10-20 09:00,9.92,41.9,13.44,6.63,7.38,-26.39,2.92
2020-10-20 10:00,15.66,43.6,13.52,10.79,11.35,-26.60,3.07
2020-10-20 11:00,19.01,43.4,13.64,13.07,13.80,-26.33,3.55
2020-10-20 12:00,7.43,10.0,13.69,1.29,7.32,-25.08,3.86
2020-10-20 13:00,10.98,319.2,13.72,-7.17,8.32,-13.79,4.21
2020-10-20 14:00,13.65,302.8,13.62,-11.48,7.38,-27.32,3.57
2020-10-20 15:00,13.07,327.7,13.58,-6.99,11.05,-25.18,4.69
2020-10-20 16:00,13.52,328.3,13.53,-7.11,11.50,-23.13,4.74
2020-10-20 17:00,4.90,350.9,13.62,-0.78,4.83,-25.06,4.89
2020-10-20 18:00,6.08,41.0,13.69,3.99,4.58,-26.10,3.20
2020-10-20 19:00,8.43,81.4,13.77,8.34,1.26,-28.38,3.08
2020-10-20 20:00,16.65,63.9,14.04,14.95,7.34,-29.33,3.43
2020-10-20 21:00,14.98,106.2,14.27,14.38,-4.18,-28.92,2.65
2020-10-20 22:00,14.14,92.9,14.12,14.12,-0.72,-27.62,3.62
2020-10-20 23:00,11.17,59.1,14.23,9.59,5.73,-27.39,3.16
2020-10-21 00:00,10.80,34.6,14.29,6.14,8.89,-27.23,3.31
2020-10-21 01:00,10.38,351.3,14.28,-1.57,10.26,-25.86,3.44
2020-10-21 02:00,13.84,300.4,14.18,-11.93,7.01,-25.19,3.23
2020-10-21 03:00,12.42,330.9,14.15,-6.04,10.85,-24.17,2.44
2020-10-21 04:00,11.91,287.0,14.12,-11.40,3.48,-24.20,2.15
2020-10-21 05:00,13.02,312.6,13.93,-9.59,8.81,-24.15,2.03
2020-10-21 06:00,6.47,292.3,13.94,-5.99,2.46,-23.66,2.25
2020-10-21 07:00,6.58,329.8,13.89,-3.31,5.68,-23.78,2.71
2020-10-21 08:00,1.79,58.0,13.91,1.52,0.95,-24.45,3.23
2020-10-21 09:00,1.18,26.1,13.86,0.52,1.06,-25.18,3.62
2020-10-21 10:00,2.00,97.6,13.82,1.99,-0.27,-25.88,3.83
2020-10-21 11:00,6.50,31.5,13.81,3.40,5.55,-25.35,4.95
2020-10-21 12:00,9.97,339.6,13.77,-3.48,9.35,-19.34,5.22
2020-10-21 13:00,11.99,294.8,13.74,-10.89,5.03,-25.90,5.07
2020-10-21 14:00,22.80,292.8,13.66,-21.02,8.84,-27.06,4.83
2020-10-21 15:00,24.79,305.6,13.45,-20.17,14.42,-29.10,4.82
2020-10-21 16:00,19.37,335.9,13.33,-7.90,17.69,-28.09,3.64
2020-10-21 17:00,16.32,330.9,13.34,-7.94,14.26,-29.08,4.30
2020-10-21 18:00,14.17,323.1,13.42,-8.50,11.34,-28.45,4.47
2020-10-21 19:00,14.59,4.4,13.55,1.11,14.55,-27.71,3.74
2020-10-21 20:00,16.10,54.6,13.53,13.12,9.34,-28.81,3.41
2020-10-21 21:00,22.96,71.8,13.48,21.82,7.15,-29.32,3.18
2020-10-21 22:00,22.27,69.7,13.75,20.88,7.74,-28.55,3.17
2020-10-21 23:00,22.17,63.5,13.59,19.85,9.88,-18.13,5.85
2020-10-22 00:00,18.61,49.2,13.98,14.09,12.16,-24.13,7.40
2020-10-22 01:00,13.95,33.3,14.18,7.65,11.66,-25.33,7.31
2020-10-22 02:00,16.36,8.5,14.22,2.43,16.18,-25.21,7.27
2020-10-22 03:00,17.67,350.5,14.23,-2.92,17.43,-21.72,7.07
2020-10-22 04:00,16.77,356.7,14.18,-0.96,16.74,-24.48,7.81
2020-10-22 05:00,12.67,10.4,14.17,2.28,12.46,-25.66,5.23
2020-10-22 06:00,6.10,31.5,14.17,3.19,5.20,-26.65,3.48
2020-10-22 07:00,5.19,39.4,14.19,3.30,4.01,-26.84,3.84
2020-10-22 08:00,6.79,77.9,14.17,6.64,1.42,-26.67,3.11
2020-10-22 09:00,5.43,102.3,14.11,5.30,-1.16,-26.73,2.47
2020-10-22 10:00,9.57,105.6,14.15,9.21,-2.57,-26.65,2.77
2020-10-22 11:00,9.21,111.1,14.11,8.59,-3.32,-27.12,2.62
2020-10-22 12:00,6.40,61.0,14.08,5.60,3.10,-28.18,2.09
2020-10-22 13:00,10.03,16.8,14.12,2.90,9.60,-27.53,2.09
2020-10-22 14:00,11.94,317.5,14.16,-8.07,8.80,-26.44,1.76
2020-10-22 15:00,18.94,313.0,14.22,-13.85,12.91,-28.80,1.62
2020-10-22 16:00,22.10,299.8,14.34,-19.18,10.97,-30.33,1.90
2020-10-22 17:00,21.13,323.3,14.13,-12.64,16.93,-28.89,1.55
2020-10-22 18:00,15.49,319.0,14.05,-10.15,11.70,-24.86,2.61
2020-10-22 19:00,13.27,330.3,13.69,-6.57,11.53,-24.57,4.18
2020-10-22 20:00,14.37,342.5,13.67,-4.32,13.70,-23.13,3.98
2020-10-22 21:00,17.52,18.9,13.57,5.68,16.57,-23.48,3.69